Weather in Stamford

United States     41°03′37″N   73°32′34″W
temp.,
°C
wind,
m/s
gust,
m/s
humid.,
%
clouds,
%
prec.,
mm/h
press.,
hPa
HPBL,
m
26 may, thu
thu2623:00+14sse4556100 0.0 1029438
02:00+13sse3563100 0.0 1028383
05:00+13se3570100 0.0 1027360
08:00+14sse4569100 0.0 1027531
11:00+17sse5654100 0.0 1026917
14:00+19s6756100 0.0 1024753
17:00+19s686596 0.0 1022594
20:00+18s587787 0.0 1021433
27 may, fri
fri2723:00+18ssw498477 0.0 1020377
02:00+18ssw41091100 0.1 1018329
05:00+18ssw51195100 0.3 1017343
08:00+18ssw5109477 0.4 1016343
11:00+21ssw5880100 0.0 1015357
14:00+22s71076100 0.3 1013406
17:00+19ssw6995100 3.7 1012254
20:00+19s51097100 7.3 1012326
28 may, sat
sat2823:00+19ssw51296100 1.4 1011436
02:00+18s51198100 2.8 1009378
05:00+17s41198100 1.3 1007445
08:00+17ssw5897100 1.6 1007420
11:00+19ssw3589100 0.0 1007236
14:00+22wsw366615 2.0 1006616
17:00+24ssw585228 0.0 1005782
20:00+21wnw47710 0.0 1007160
29 may, sun
sun2923:00+18nw378236 0.0 1009206
02:00+17nnw4118637 0.0 1012382
05:00+16nnw5117999 0.0 1013340
08:00+18nnw466829 0.0 1016289
11:00+21nw235839 0.0 1017516
14:00+23ssw1250100 0.0 1016727
17:00+24w1249100 0.0 1015748
20:00+21ssw585991 0.0 1017125
30 may, mon
mon3023:00+20ssw467099 0.0 101880
02:00+19wsw347493 0.0 101854
05:00+18wsw3477100 0.0 101963
08:00+20wsw477388 0.0 1019187
11:00+23sw476146 0.0 1018375
14:00+26sw575195 0.0 1016674
17:00+27sw5749100 0.0 1014793
20:00+26wsw5958100 0.0 1014179